�������l�o���
Date,Time,MP-1(��Sv/h),MP-2(��Sv/h),MP-3(��Sv/h),MP-4(��Sv/h),MP-5(��Sv/h),MP-6(��Sv/h),MP-7(��Sv/h),MP-8(��Sv/h),����,����(m/s),���J
2017/12/14,00:00,0.887,1.477,0.924,1.750,1.184,0.492,0.877,0.841,�k��,3.6,��
2017/12/14,00:10,0.884,1.479,0.927,1.748,1.185,0.491,0.874,0.840,�k,3.4,��
2017/12/14,00:20,0.885,1.474,0.926,1.750,1.185,0.491,0.874,0.843,�k��,4.4,��
2017/12/14,00:30,0.882,1.476,0.928,1.751,1.184,0.491,0.875,0.841,���k��,5.3,��
2017/12/14,00:40,0.883,1.476,0.928,1.749,1.185,0.491,0.875,0.839,��,6.2,��
2017/12/14,00:50,0.884,1.477,0.927,1.751,1.186,0.489,0.875,0.841,��,4.6,��
2017/12/14,01:00,0.886,1.477,0.927,1.754,1.185,0.492,0.875,0.842,���k��,2.9,��
2017/12/14,01:10,0.887,1.477,0.927,1.752,1.187,0.491,0.877,0.843,�k��,2.3,��
2017/12/14,01:20,0.884,1.478,0.927,1.751,1.184,0.490,0.875,0.842,�k�k��,1.5,��
2017/12/14,01:30,0.885,1.477,0.924,1.749,1.185,0.491,0.874,0.841,�k��,1.4,��
2017/12/14,01:40,0.883,1.475,0.925,1.754,1.182,0.490,0.875,0.842,���k��,2.0,��
2017/12/14,01:50,0.883,1.476,0.928,1.752,1.183,0.491,0.873,0.841,���k��,2.6,��
2017/12/14,02:00,0.884,1.477,0.925,1.751,1.183,0.491,0.874,0.842,���k��,2.0,��
2017/12/14,02:10,0.886,1.474,0.926,1.749,1.183,0.492,0.873,0.841,-,CALM,��
2017/12/14,02:20,0.885,1.476,0.926,1.749,1.181,0.491,0.874,0.841,�k�k��,2.5,��
2017/12/14,02:30,0.885,1.476,0.924,1.748,1.183,0.491,0.876,0.840,�k�k��,2.9,��
2017/12/14,02:40,0.886,1.477,0.927,1.751,1.183,0.491,0.874,0.841,���k��,4.3,��
2017/12/14,02:50,0.883,1.475,0.927,1.748,1.181,0.491,0.873,0.841,��,5.6,��
2017/12/14,03:00,0.886,1.475,0.926,1.752,1.182,0.490,0.876,0.841,���쐼,4.3,��
2017/12/14,03:10,0.885,1.473,0.926,1.749,1.182,0.492,0.875,0.841,�쐼,0.9,��
2017/12/14,03:20,0.886,1.473,0.926,1.749,1.182,0.491,0.874,0.841,���k��,0.9,��
2017/12/14,03:30,0.884,1.475,0.927,1.748,1.181,0.490,0.875,0.842,�k�k��,1.5,��
2017/12/14,03:40,0.885,1.475,0.926,1.749,1.182,0.491,0.873,0.842,�k,0.9,��
2017/12/14,03:50,0.883,1.474,0.925,1.750,1.182,0.491,0.873,0.842,���k��,2.5,��
2017/12/14,04:00,0.883,1.474,0.924,1.748,1.182,0.491,0.874,0.841,���k��,2.6,��
2017/12/14,04:10,0.885,1.475,0.924,1.746,1.183,0.492,0.874,0.839,���쐼,1.9,��
2017/12/14,04:20,0.884,1.476,0.925,1.748,1.180,0.491,0.874,0.840,��,0.9,��
2017/12/14,04:30,0.885,1.473,0.924,1.751,1.181,0.491,0.876,0.841,��쓌,1.4,��
2017/12/14,04:40,0.885,1.473,0.924,1.747,1.180,0.491,0.872,0.841,���쐼,1.1,��
2017/12/14,04:50,0.883,1.474,0.925,1.747,1.183,0.490,0.874,0.840,��,2.9,��
2017/12/14,05:00,0.882,1.476,0.923,1.748,1.181,0.488,0.874,0.840,��,3.5,��
2017/12/14,05:10,0.884,1.473,0.926,1.748,1.183,0.491,0.873,0.840,��,1.7,��
2017/12/14,05:20,0.883,1.474,0.927,1.749,1.179,0.491,0.873,0.841,���k��,1.1,��
2017/12/14,05:30,0.882,1.474,0.924,1.748,1.181,0.491,0.873,0.841,�k��,1.2,��
2017/12/14,05:40,0.885,1.473,0.926,1.747,1.181,0.491,0.873,0.840,�k��,3.0,��
2017/12/14,05:50,0.883,1.476,0.924,1.748,1.178,0.489,0.875,0.842,���k��,6.1,��
2017/12/14,06:00,0.885,1.473,0.926,1.752,1.183,0.489,0.873,0.840,���k��,6.2,��
2017/12/14,06:10,0.883,1.473,0.926,1.750,1.184,0.489,0.873,0.842,�k��,4.6,��
2017/12/14,06:20,0.884,1.474,0.926,1.747,1.182,0.490,0.874,0.843,�k�k��,2.9,��
2017/12/14,06:30,0.882,1.473,0.925,1.747,1.182,0.490,0.876,0.841,�k�k��,3.2,��
2017/12/14,06:40,0.882,1.475,0.922,1.745,1.181,0.489,0.874,0.841,�k�k��,3.7,��
2017/12/14,06:50,0.885,1.473,0.923,1.746,1.182,0.491,0.875,0.841,�k��,4.5,��
2017/12/14,07:00,0.885,1.471,0.925,1.750,1.179,0.489,0.874,0.841,�k��,7.4,��
2017/12/14,07:10,0.882,1.471,0.925,1.749,1.180,0.489,0.875,0.840,�k��,7.7,��
2017/12/14,07:20,0.883,1.475,0.924,1.747,1.181,0.489,0.872,0.840,���k��,6.6,��
2017/12/14,07:30,0.884,1.473,0.925,1.748,1.177,0.490,0.873,0.839,���k��,6.0,��
2017/12/14,07:40,0.883,1.476,0.925,1.750,1.180,0.489,0.874,0.842,��,4.1,��
2017/12/14,07:50,0.885,1.475,0.925,1.750,1.178,0.491,0.874,0.841,��,3.2,��
2017/12/14,08:00,0.883,1.474,0.927,1.747,1.182,0.490,0.874,0.842,��,2.5,��
2017/12/14,08:10,0.885,1.473,0.926,1.748,1.181,0.489,0.875,0.841,��,2.8,��
2017/12/14,08:20,0.885,1.478,0.927,1.749,1.180,0.491,0.874,0.842,���k��,4.3,��
2017/12/14,08:30,0.887,1.477,0.928,1.749,1.180,0.490,0.877,0.842,�k��,5.1,��
2017/12/14,08:40,0.885,1.473,0.928,1.751,1.180,0.491,0.875,0.842,���k��,5.6,��
2017/12/14,08:50,0.889,1.477,0.926,1.750,1.181,0.491,0.875,0.843,�k��,5.1,��
2017/12/14,09:00,0.888,1.477,0.928,1.751,1.183,0.491,0.877,0.843,�k�k��,5.4,��
2017/12/14,09:10,0.885,1.476,0.927,1.752,1.182,0.491,0.875,0.842,�k��,5.7,��
2017/12/14,09:20,0.888,1.476,0.928,1.751,1.181,0.491,0.878,0.843,�k��,7.3,��
2017/12/14,09:30,0.889,1.475,0.928,1.752,1.185,0.490,0.876,0.841,���k��,5.8,��
2017/12/14,09:40,0.888,1.476,0.928,1.752,1.183,0.490,0.877,0.842,�k��,8.3,��
2017/12/14,09:50,0.889,1.472,0.926,1.754,1.185,0.490,0.877,0.844,�k��,7.8,��
2017/12/14,10:00,0.890,1.476,0.929,1.755,1.183,0.491,0.875,0.843,�k��,6.6,��
2017/12/14,10:10,0.889,1.475,0.925,1.755,1.183,0.492,0.873,0.842,���k��,7.1,��
2017/12/14,10:20,0.890,1.472,0.926,1.752,1.182,0.492,0.875,0.844,���k��,6.5,��
2017/12/14,10:30,0.889,1.474,0.925,1.754,1.184,0.491,0.874,0.841,�k��,8.8,��
2017/12/14,10:40,0.890,1.474,0.927,1.752,1.186,0.491,0.874,0.844,�k��,5.6,��
2017/12/14,10:50,0.889,1.473,0.925,1.756,1.187,0.491,0.875,0.843,�k��,7.1,��
2017/12/14,11:00,0.889,1.471,0.927,1.754,1.189,0.491,0.877,0.844,�k��,8.0,��
2017/12/14,11:10,0.890,1.477,0.926,1.752,1.189,0.493,0.877,0.844,�k��,7.3,��
2017/12/14,11:20,0.891,1.478,0.927,1.756,1.186,0.492,0.875,0.843,�k��,7.5,��
2017/12/14,11:30,0.890,1.478,0.931,1.755,1.190,0.493,0.877,0.844,�k��,5.6,��
2017/12/14,11:40,0.893,1.476,0.929,1.757,1.188,0.494,0.877,0.844,�k��,4.8,��
2017/12/14,11:50,0.891,1.481,0.929,1.759,1.190,0.493,0.878,0.845,�k��,5.5,��
2017/12/14,12:00,0.893,1.478,0.929,1.755,1.189,0.494,0.878,0.843,�k��,5.8,��
2017/12/14,12:10,0.890,1.483,0.931,1.755,1.190,0.493,0.878,0.844,�k��,6.5,��
2017/12/14,12:20,0.893,1.480,0.932,1.758,1.189,0.492,0.878,0.846,�k�k��,6.7,��
2017/12/14,12:30,0.892,1.478,0.932,1.755,1.192,0.493,0.878,0.845,�k��,4.1,��
2017/12/14,12:40,0.894,1.478,0.933,1.757,1.188,0.493,0.881,0.847,�k��,6.9,��
2017/12/14,12:50,0.894,1.480,0.931,1.757,1.189,0.492,0.879,0.846,�k��,5.2,��
2017/12/14,13:00,0.893,1.479,0.931,1.756,1.191,0.493,0.878,0.845,�k��,5.6,��
2017/12/14,13:10,0.895,1.479,0.931,1.756,1.189,0.494,0.878,0.845,�k�k��,5.6,��
2017/12/14,13:20,0.894,1.478,0.933,1.758,1.191,0.495,0.877,0.843,�k�k��,7.8,��
2017/12/14,13:30,0.892,1.482,0.933,1.759,1.190,0.494,0.878,0.842,�k��,9.2,��
2017/12/14,13:40,0.893,1.475,0.933,1.759,1.191,0.493,0.877,0.842,�k��,8.0,��
2017/12/14,13:50,0.893,1.474,0.931,1.756,1.192,0.493,0.879,0.844,�k��,7.6,��
2017/12/14,14:00,0.894,1.473,0.933,1.759,1.193,0.493,0.877,0.845,�k��,6.9,��
2017/12/14,14:10,0.894,1.472,0.932,1.758,1.188,0.494,0.877,0.846,�k��,6.2,��
2017/12/14,14:20,0.894,1.470,0.933,1.757,1.190,0.493,0.879,0.846,�k��,5.2,��
2017/12/14,14:30,0.894,1.470,0.934,1.755,1.191,0.493,0.880,0.846,�k��,6.9,��
2017/12/14,14:40,0.891,1.478,0.932,1.758,1.192,0.495,0.880,0.846,�k��,4.7,��
2017/12/14,14:50,0.894,1.486,0.933,1.759,1.192,0.495,0.878,0.845,�k��,6.2,��
2017/12/14,15:00,0.891,1.483,0.932,1.758,1.190,0.492,0.878,0.844,�k��,4.2,��
2017/12/14,15:10,0.894,1.485,0.924,1.758,1.192,0.493,0.878,0.844,�k��,5.5,��
2017/12/14,15:20,0.893,1.486,0.930,1.761,1.190,0.492,0.879,0.844,���k��,5.3,��
2017/12/14,15:30,0.893,1.483,0.933,1.758,1.192,0.493,0.880,0.845,��,5.5,��
2017/12/14,15:40,0.893,1.487,0.933,1.757,1.191,0.492,0.879,0.844,��,6.0,��
2017/12/14,15:50,0.894,1.484,0.931,1.757,1.190,0.494,0.879,0.843,��,6.2,��
2017/12/14,16:00,0.890,1.484,0.933,1.757,1.190,0.493,0.880,0.843,���k��,6.6,��
2017/12/14,16:10,0.891,1.482,0.931,1.757,1.190,0.493,0.878,0.843,���k��,6.7,��
2017/12/14,16:20,0.892,1.484,0.932,1.759,1.192,0.493,0.879,0.843,���k��,6.3,��
2017/12/14,16:30,0.892,1.484,0.931,1.758,1.192,0.492,0.879,0.844,���k��,7.4,��
2017/12/14,16:40,0.890,1.485,0.929,1.759,1.190,0.493,0.876,0.842,��,6.7,��
2017/12/14,16:50,0.890,1.484,0.931,1.757,1.190,0.492,0.878,0.843,��,5.9,��
2017/12/14,17:00,0.887,1.485,0.930,1.759,1.190,0.492,0.878,0.843,��,6.6,��
2017/12/14,17:10,0.891,1.486,0.930,1.761,1.190,0.494,0.878,0.842,��,6.0,��
2017/12/14,17:20,0.890,1.484,0.931,1.758,1.190,0.492,0.879,0.842,��,5.9,��
2017/12/14,17:30,0.888,1.484,0.930,1.759,1.188,0.491,0.877,0.844,��,4.9,��
2017/12/14,17:40,0.890,1.484,0.929,1.758,1.188,0.493,0.879,0.842,��,5.0,��
2017/12/14,17:50,0.890,1.484,0.930,1.756,1.192,0.492,0.876,0.844,���k��,4.9,��
2017/12/14,18:00,0.890,1.484,0.930,1.757,1.189,0.492,0.877,0.843,���k��,4.4,��
2017/12/14,18:10,0.892,1.483,0.930,1.756,1.188,0.492,0.878,0.843,���k��,4.0,��
2017/12/14,18:20,0.890,1.484,0.929,1.753,1.190,0.492,0.877,0.842,���k��,3.4,��
2017/12/14,18:30,0.890,1.485,0.929,1.754,1.187,0.493,0.878,0.844,���k��,4.9,��
2017/12/14,18:40,0.890,1.483,0.930,1.757,1.188,0.492,0.878,0.843,���k��,6.1,��
2017/12/14,18:50,0.886,1.484,0.930,1.757,1.190,0.490,0.876,0.843,���k��,6.4,��
2017/12/14,19:00,0.887,1.485,0.929,1.756,1.191,0.492,0.878,0.844,���k��,6.3,��
2017/12/14,19:10,0.888,1.484,0.929,1.755,1.189,0.491,0.877,0.841,�k��,5.6,��
2017/12/14,19:20,0.886,1.484,0.930,1.757,1.189,0.491,0.877,0.843,�k�k��,4.3,��
2017/12/14,19:30,0.891,1.486,0.930,1.755,1.191,0.492,0.877,0.842,�k��,4.8,��
2017/12/14,19:40,0.892,1.483,0.930,1.758,1.188,0.489,0.876,0.841,�k�k��,5.7,��
2017/12/14,19:50,0.890,1.484,0.928,1.758,1.190,0.489,0.877,0.843,�k��,6.6,��
2017/12/14,20:00,0.889,1.486,0.932,1.751,1.186,0.491,0.877,0.843,�k��,6.6,��
2017/12/14,20:10,0.890,1.483,0.932,1.758,1.189,0.490,0.875,0.841,�k��,5.6,��
2017/12/14,20:20,0.889,1.482,0.931,1.758,1.190,0.492,0.876,0.841,�k��,5.7,��
2017/12/14,20:30,0.889,1.482,0.929,1.755,1.186,0.490,0.876,0.839,�k��,2.3,��
2017/12/14,20:40,0.890,1.484,0.931,1.754,1.187,0.491,0.877,0.841,�k��,4.6,��
2017/12/14,20:50,0.891,1.483,0.930,1.758,1.187,0.491,0.875,0.842,�k��,2.6,��
2017/12/14,21:00,0.890,1.481,0.930,1.753,1.189,0.493,0.875,0.843,�k��,3.6,��
2017/12/14,21:10,0.889,1.480,0.929,1.756,1.188,0.490,0.876,0.842,�k��,4.9,��
2017/12/14,21:20,0.889,1.482,0.931,1.757,1.186,0.492,0.877,0.842,�k��,6.3,��
2017/12/14,21:30,0.889,1.483,0.929,1.757,1.188,0.493,0.874,0.841,���k��,5.9,��
2017/12/14,21:40,0.889,1.485,0.928,1.754,1.186,0.494,0.874,0.841,���k��,6.4,��
2017/12/14,21:50,0.889,1.483,0.930,1.757,1.186,0.490,0.876,0.841,���k��,7.1,��
2017/12/14,22:00,0.890,1.483,0.929,1.757,1.187,0.491,0.875,0.842,���k��,6.2,��
2017/12/14,22:10,0.889,1.482,0.928,1.757,1.185,0.490,0.876,0.840,���k��,5.4,��
2017/12/14,22:20,0.889,1.483,0.930,1.757,1.186,0.491,0.875,0.841,���k��,5.9,��
2017/12/14,22:30,0.889,1.486,0.930,1.756,1.186,0.493,0.874,0.841,���k��,4.7,��
2017/12/14,22:40,0.889,1.484,0.930,1.754,1.186,0.492,0.876,0.841,���k��,3.9,��
2017/12/14,22:50,0.889,1.483,0.928,1.757,1.186,0.490,0.876,0.840,�k��,3.8,��
2017/12/14,23:00,0.888,1.484,0.929,1.757,1.188,0.491,0.875,0.841,�k��,3.7,��
2017/12/14,23:10,0.889,1.484,0.931,1.756,1.185,0.491,0.875,0.840,���k��,3.5,��
2017/12/14,23:20,0.889,1.481,0.930,1.753,1.189,0.491,0.873,0.842,���쐼,1.9,��
2017/12/14,23:30,0.888,1.481,0.928,1.754,1.184,0.491,0.875,0.840,���k��,1.2,��
2017/12/14,23:40,0.886,1.480,0.929,1.756,1.185,0.492,0.874,0.842,���k��,1.7,��
2017/12/14,23:50,0.887,1.482,0.928,1.754,1.187,0.491,0.876,0.841,���k��,2.5,��
